Location: McFarlands Corners
(41.4117°N, 81.3382°W)
Time: 14:04:33
(UTC+00:00)

A-11 Canister half - Pass Details

Date: 20 February 2026
Orbit: 1525 x 1683 km, 47.3° (Epoch: 11 March)

Event Time Altitude Azimuth Distance (km) Brightness Sun altitude
Rises 22:13:21 0° 253° (WSW) 4,730 14.0 8.4°
Reaches altitude 10° 22:16:27 10° 255° (WSW) 3,730 13.8 7.9°
Maximum altitude 22:25:51 75° 340° (NNW) 1,579 9.3 6.3°
Drops below altitude 10° 22:35:10 10° 67° (ENE) 3,694 10.4 4.6°
Sets 22:38:14 0° 69° (ENE) 4,682 10.8 4.1°
